Time,TemperatureF,DewpointF,PressureIn,WindDirection,WindDirectionDegrees,WindSpeedMPH,WindSpeedGustMPH,Humidity,HourlyPrecipIn,Conditions,Clouds,dailyrainin,SoftwareType,DateUTC
2013-04-08 00:00:00,36.0,-99.9,-100.00,WSW,243,19.0,25.0,-999,-99.99,,,-99.99,,2013-04-08 06:00:00,
2013-04-08 00:53:00,36.0,-99.9,-100.00,WSW,243,19.0,25.0,-999,-99.99,,,-99.99,,2013-04-08 06:53:00,
2013-04-08 01:00:00,32.0,-99.9,-100.00,WSW,241,11.0,11.0,-999,-99.99,,,-99.99,,2013-04-08 07:00:00,
2013-04-08 01:53:00,32.0,-99.9,-100.00,WSW,241,11.0,11.0,-999,-99.99,,,-99.99,,2013-04-08 07:53:00,
2013-04-08 02:00:00,28.0,-99.9,-100.00,WSW,254,7.0,8.0,-999,-99.99,,,-99.99,,2013-04-08 08:00:00,
2013-04-08 02:52:00,28.0,-99.9,-100.00,WSW,254,7.0,8.0,-999,-99.99,,,-99.99,,2013-04-08 08:52:00,
2013-04-08 03:00:00,25.0,-99.9,-100.00,WSW,243,6.0,8.0,-999,-99.99,,,-99.99,,2013-04-08 09:00:00,
2013-04-08 03:53:00,25.0,-99.9,-100.00,WSW,243,6.0,8.0,-999,-99.99,,,-99.99,,2013-04-08 09:53:00,
2013-04-08 04:00:00,30.0,-99.9,-100.00,SSW,200,7.0,10.0,-999,-99.99,,,-99.99,,2013-04-08 10:00:00,
2013-04-08 04:53:00,30.0,-99.9,-100.00,SSW,200,7.0,10.0,-999,-99.99,,,-99.99,,2013-04-08 10:53:00,
2013-04-08 05:00:00,27.0,-99.9,-100.00,WSW,237,5.0,7.0,-999,-99.99,,,-99.99,,2013-04-08 11:00:00,
2013-04-08 05:53:00,27.0,-99.9,-100.00,WSW,237,5.0,7.0,-999,-99.99,,,-99.99,,2013-04-08 11:53:00,
2013-04-08 06:00:00,23.0,-99.9,-100.00,West,262,6.0,6.0,-999,-99.99,,,-99.99,,2013-04-08 12:00:00,
2013-04-08 06:53:00,23.0,-99.9,-100.00,West,262,6.0,6.0,-999,-99.99,,,-99.99,,2013-04-08 12:53:00,
2013-04-08 07:00:00,30.0,-99.9,-100.00,SW,229,13.0,15.0,-999,-99.99,,,-99.99,,2013-04-08 13:00:00,
2013-04-08 07:33:00,30.0,-99.9,-100.00,SW,229,13.0,15.0,-999,-99.99,,,-99.99,,2013-04-08 13:33:00,
2013-04-08 07:43:00,30.0,-99.9,-100.00,SW,229,13.0,15.0,-999,-99.99,,,-99.99,,2013-04-08 13:43:00,
2013-04-08 07:53:00,30.0,-99.9,-100.00,SW,229,13.0,15.0,-999,-99.99,,,-99.99,,2013-04-08 13:53:00,
2013-04-08 08:00:00,34.0,-99.9,-100.00,West,280,4.0,4.0,-999,-99.99,,,-99.99,,2013-04-08 14:00:00,
2013-04-08 08:33:00,34.0,-99.9,-100.00,West,280,4.0,4.0,-999,-99.99,,,-99.99,,2013-04-08 14:33:00,
2013-04-08 08:43:00,34.0,-99.9,-100.00,West,280,4.0,4.0,-999,-99.99,,,-99.99,,2013-04-08 14:43:00,
2013-04-08 08:53:00,34.0,-99.9,-100.00,West,280,4.0,4.0,-999,-99.99,,,-99.99,,2013-04-08 14:53:00,
2013-04-08 09:00:00,39.0,-99.9,-100.00,East,98,16.0,17.0,-999,-99.99,,,-99.99,,2013-04-08 15:00:00,
2013-04-08 09:54:00,39.0,-99.9,-100.00,East,98,16.0,17.0,-999,-99.99,,,-99.99,,2013-04-08 15:54:00,
2013-04-08 10:00:00,41.0,-99.9,-100.00,ENE,69,13.0,15.0,-999,-99.99,,,-99.99,,2013-04-08 16:00:00,
2013-04-08 10:54:00,41.0,-99.9,-100.00,ENE,69,13.0,15.0,-999,-99.99,,,-99.99,,2013-04-08 16:54:00,
2013-04-08 11:00:00,45.0,-99.9,-100.00,ENE,74,18.0,24.0,-999,-99.99,,,-99.99,,2013-04-08 17:00:00,
2013-04-08 11:53:00,45.0,-99.9,-100.00,ENE,74,18.0,24.0,-999,-99.99,,,-99.99,,2013-04-08 17:53:00,
2013-04-08 12:00:00,45.0,-99.9,-100.00,NE,46,22.0,27.0,-999,-99.99,,,-99.99,,2013-04-08 18:00:00,
2013-04-08 12:53:00,45.0,-99.9,-100.00,NE,46,22.0,27.0,-999,-99.99,,,-99.99,,2013-04-08 18:53:00,
2013-04-08 13:00:00,46.0,-99.9,-100.00,NNE,29,31.0,36.0,-999,-99.99,,,-99.99,,2013-04-08 19:00:00,
2013-04-08 13:53:00,46.0,-99.9,-100.00,NNE,29,31.0,36.0,-999,-99.99,,,-99.99,,2013-04-08 19:53:00,
2013-04-08 14:00:00,36.0,-99.9,-100.00,NNE,26,21.0,29.0,-999,-99.99,,,-99.99,,2013-04-08 20:00:00,
2013-04-08 14:53:00,36.0,-99.9,-100.00,NNE,26,21.0,29.0,-999,-99.99,,,-99.99,,2013-04-08 20:53:00,
2013-04-08 15:00:00,32.0,-99.9,-100.00,NNW,340,24.0,32.0,-999,-99.99,,,-99.99,,2013-04-08 21:00:00,
2013-04-08 15:53:00,32.0,-99.9,-100.00,NNW,340,24.0,32.0,-999,-99.99,,,-99.99,,2013-04-08 21:53:00,
2013-04-08 19:00:00,25.0,-99.9,-100.00,NNW,337,25.0,35.0,-999,-99.99,,,-99.99,,2013-04-09 01:00:00,
2013-04-08 19:53:00,25.0,-99.9,-100.00,NNW,337,25.0,35.0,-999,-99.99,,,-99.99,,2013-04-09 01:53:00,
2013-04-08 20:00:00,23.0,-99.9,-100.00,NNW,343,28.0,38.0,-999,-99.99,,,-99.99,,2013-04-09 02:00:00,
2013-04-08 20:52:00,23.0,-99.9,-100.00,NNW,343,28.0,38.0,-999,-99.99,,,-99.99,,2013-04-09 02:52:00,
2013-04-08 21:00:00,18.0,-99.9,-100.00,North,353,26.0,31.0,-999,-99.99,,,-99.99,,2013-04-09 03:00:00,
2013-04-08 21:53:00,18.0,-99.9,-100.00,North,353,26.0,31.0,-999,-99.99,,,-99.99,,2013-04-09 03:53:00,
2013-04-08 22:00:00,14.0,-99.9,-100.00,NNW,340,29.0,30.0,-999,-99.99,,,-99.99,,2013-04-09 04:00:00,
2013-04-08 22:33:00,14.0,-99.9,-100.00,NNW,340,29.0,30.0,-999,-99.99,,,-99.99,,2013-04-09 04:33:00,
2013-04-08 22:43:00,14.0,-99.9,-100.00,NNW,340,29.0,30.0,-999,-99.99,,,-99.99,,2013-04-09 04:43:00,
2013-04-08 22:53:00,14.0,-99.9,-100.00,NNW,340,29.0,30.0,-999,-99.99,,,-99.99,,2013-04-09 04:53:00,
2013-04-08 23:00:00,9.0,-99.9,-100.00,NNW,339,29.0,32.0,-999,-99.99,,,-99.99,,2013-04-09 05:00:00,
2013-04-08 23:52:00,9.0,-99.9,-100.00,NNW,339,29.0,32.0,-999,-99.99,,,-99.99,,2013-04-09 05:52:00,